Location: Akgöl Batakl???
(38.9482°N, 31.8837°E)
Time: 13:46:33
(UTC+00:00)

Cosmos 1743 - Pass Details

Date: 08 May 2026
Orbit: 367 x 372 km, 82.5° (Epoch: 10 June)

Event Time Altitude Azimuth Distance (km) Brightness Sun altitude
Rises 18:51:15 0° 355° (N) 2,237 6.7 -20.1°
Reaches altitude 10° 18:53:15 10° 359° (N) 1,385 5.5 -20.4°
Enters shadow 18:55:24 42° 17° (NNE) 553 3.0 -20.7°
